User: anonymous   Login
Location: *
(43.9905°S, 176.4941°W)
Time: 13:22:02
(UTC+00:00)
Language:

Meteor 1-24 Rocket - Orbit

View from above orbital plane
View from above orbital plane
View from above satellite
View from above satellite

Ground track
Ground track

The orbit data is extracted from the following two-line orbital elements,

1  8800U 76032B   20052.82141898 +.00000007 +00000-0 -22311-5 0  9996
2  8800 081.2543 344.2776 0093573 292.3540 066.7734 14.10141637256044
Epoch (UTC): 21 February 2020 19:42:50
Eccentricity: 0.0093573
inclination: 81.2543°
perigee height: 791 km
apogee height: 926 km
right ascension of ascending node: 344.2776°
argument of perigee: 292.3540°
revolutions per day: 14.10141637
mean anomaly at epoch: 66.7734°
orbit number at epoch: 25604

The dashed part of the orbit path shows where the satellite is in the earth's shadow,  

DLR